Location: Okie-Tex Star Party
(36.8978°N, 102.9520°W)
Time: 06:35:50
(UTC-05:00)

Amateur Radio Satellites - All Passes

Search period start: 27 July 2016 06:05
Search period end: 28 July 2016 06:05
Location: Okie-Tex Star Party, 36.8978°N, 102.9520°W

Satellite Date Start Highest point End Downlink Frequencies (MHz)
Time Altitude Azimuth
AIST 2 27 Jul 06:06:51 06:09:01 14° 46° (NE) 06:11:11 435.215
ISS 27 Jul 06:07:23 06:10:21 33° 227° (SW) 06:13:18 145.825
STARS 27 Jul 06:07:32 06:11:27 32° 262° (W) 06:15:25 437.465
RS-15 27 Jul 06:30:21 06:39:16 28° 102° (ESE) 06:48:30 29.354- 29.394
HORYU 2 27 Jul 06:45:09 06:49:37 69° 101° (ESE) 06:54:02 437.375
JUGNU 27 Jul 06:48:12 06:49:32 11° 192° (SSW) 06:50:53 437.505
PCSat 27 Jul 06:55:10 06:59:59 33° 251° (WSW) 07:04:45 145.827
O/OREOS (USA 219) 27 Jul 06:59:27 07:03:02 22° 61° (ENE) 07:06:37 437.305
Cubesat XI-IV 27 Jul 07:00:24 07:03:21 15° 92° (E) 07:06:17 437.490
STRAND 1 27 Jul 07:11:06 07:14:25 18° 64° (ENE) 07:17:44 437.568
BRITE-PL 27 Jul 07:11:16 07:15:47 36° 98° (E) 07:20:36 437.365/2234.400
SRMSAT 27 Jul 07:14:46 07:17:52 14° 181° (S) 07:20:56 437.500
CUBESAT XI-V 27 Jul 07:21:17 07:24:57 23° 265° (W) 07:28:38 437.345
CUTE-I 27 Jul 07:22:55 07:27:18 26° 95° (E) 07:31:39 437.470
NOAA 15 27 Jul 07:42:44 07:47:54 54° 101° (E) 07:53:03 137.62
AIST 2 27 Jul 07:43:46 07:47:53 60° 242° (WSW) 07:51:58 435.215
AO-7 27 Jul 07:44:01 07:49:39 21° 306° (NW) 07:55:16 29.400- 29.500
NOAA 18 27 Jul 07:57:46 08:03:12 55° 101° (E) 08:08:35 137.9125
DOVE 4 27 Jul 08:07:28 08:11:57 29° 96° (E) 08:16:31 437.250
GOMX 1 27 Jul 08:13:35 08:18:42 72° 101° (ESE) 08:24:04 467.674
Cosmos 2491 27 Jul 08:14:18 08:18:43 14° 63° (ENE) 08:23:07 435.465 / 435.565
CINEMA 3 27 Jul 08:22:34 08:23:30 10° 89° (E) 08:24:26 145.822/145.860
HORYU 2 27 Jul 08:24:37 08:25:34 11° 297° (WNW) 08:26:29 437.375
LilacSat-2 27 Jul 08:25:43 08:29:30 55° 285° (WNW) 08:33:15 437.200
O/OREOS (USA 219) 27 Jul 08:38:27 08:42:26 31° 256° (WSW) 08:46:26 437.305
Cubesat XI-IV 27 Jul 08:38:31 08:43:47 60° 287° (WNW) 08:49:00 437.490
RS-15 27 Jul 08:39:01 08:50:25 75° 302° (WNW) 09:02:33 29.354- 29.394
PRISM 27 Jul 08:41:21 08:43:35 14° 66° (ENE) 08:45:49 437.425
SO-50 27 Jul 08:45:47 08:50:25 44° 115° (ESE) 08:55:02 436.795
STRAND 1 27 Jul 08:48:07 08:53:08 52° 260° (W) 08:58:10 437.568
BRITE-PL 27 Jul 08:50:14 08:54:04 24° 290° (WNW) 08:58:08 437.365/2234.400
SEEDS 27 Jul 08:56:46 08:57:56 11° 91° (E) 08:59:06 437.485
CUTE-I 27 Jul 09:02:32 09:07:21 36° 291° (WNW) 09:12:09 437.470
SRMSAT 27 Jul 09:04:48 09:06:10 11° 191° (SSW) 09:07:32 437.500
COMPASS 1 27 Jul 09:09:15 09:09:40 10° 91° (E) 09:10:07 437.405
HO-68 27 Jul 09:17:06 09:23:46 39° 99° (E) 09:30:22 435.675
NOAA 15 27 Jul 09:23:49 09:27:12 18° 296° (WNW) 09:30:36 137.62
CUBEBUG 2 27 Jul 09:28:07 09:30:48 15° 91° (E) 09:33:24 437.445
AAUSAT CUBESAT 2 27 Jul 09:35:24 09:38:11 17° 94° (E) 09:40:57 437.432
CANX-2 27 Jul 09:37:14 09:41:25 61° 101° (E) 09:45:34 2200.000
YUBILEINY 27 Jul 09:39:26 09:45:59 24° 82° (E) 09:52:32 435.215
NOAA 18 27 Jul 09:39:37 09:43:23 19° 297° (WNW) 09:47:09 137.9125
DOVE 4 27 Jul 09:45:01 09:49:32 31° 290° (WNW) 09:54:09 437.250
CUTE 1.7 + AOD 2 27 Jul 09:50:38 09:54:51 77° 102° (ESE) 09:59:02 437.475
GOMX 1 27 Jul 09:53:51 09:56:13 13° 295° (WNW) 09:58:39 467.674
CINEMA 3 27 Jul 09:56:05 10:01:07 76° 283° (WNW) 10:06:04 145.822/145.860
Cosmos 2491 27 Jul 10:08:09 10:16:57 81° 83° (E) 10:25:45 435.465 / 435.565
PRISM 27 Jul 10:14:43 10:18:32 39° 261° (W) 10:22:22 437.425
ANTELSAT 27 Jul 10:25:23 10:28:38 19° 67° (ENE) 10:31:55 437.575/2403.000
SO-50 27 Jul 10:27:15 10:31:04 22° 311° (NW) 10:34:53 436.795
SEEDS 27 Jul 10:29:52 10:33:54 50° 286° (WNW) 10:37:55 437.485
FUNcube-1 27 Jul 10:40:25 10:44:34 36° 97° (E) 10:48:35 145.935
UWE-3 27 Jul 10:40:44 10:45:19 65° 101° (E) 10:49:45 435.000/436.395/437.385
ZACube-1 27 Jul 10:41:20 10:45:34 40° 98° (E) 10:49:41 437.345
COMPASS 1 27 Jul 10:41:30 10:45:32 53° 285° (WNW) 10:49:32 437.405
RS-15 27 Jul 10:56:15 11:05:26 25° 330° (NNW) 11:14:58 29.354- 29.394
M-CUBED/EXP-1 PRIME 27 Jul 11:02:46 11:06:14 20° 98° (E) 11:09:39 437.505
CUBEBUG 2 27 Jul 11:03:07 11:07:39 47° 287° (WNW) 11:12:03 437.445
HO-68 27 Jul 11:04:53 11:11:20 37° 295° (WNW) 11:17:46 435.675
TIGRISAT 27 Jul 11:05:37 11:10:03 48° 73° (ENE) 11:14:33 435.000
AAUSAT CUBESAT 2 27 Jul 11:10:04 11:13:42 31° 288° (WNW) 11:17:18 437.432
CANX-2 27 Jul 11:16:09 11:16:42 10° 296° (WNW) 11:17:15 2200.000
Cosmos 2504 27 Jul 11:17:11 11:25:00 37° 86° (E) 11:32:49 435.465 / 435.565
QB50P1 27 Jul 11:21:47 11:22:15 10° 64° (ENE) 11:22:44 145.935-145.965
UNISAT 6 27 Jul 11:21:50 11:26:26 78° 76° (ENE) 11:31:09 437.425
Oscar 11 27 Jul 11:22:38 11:26:54 63° 285° (WNW) 11:31:08 145.826/435.025
POPSAT HIP 1 27 Jul 11:27:03 11:28:39 12° 65° (ENE) 11:30:14 437.405
AUBIESAT-1 27 Jul 11:28:17 11:32:23 30° 101° (E) 11:36:26 437.475
DELFI C3 27 Jul 11:31:29 11:35:24 69° 100° (E) 11:39:19 145.870
YUBILEINY 27 Jul 11:33:15 11:41:56 66° 279° (W) 11:50:44 435.215
QB50P2 27 Jul 11:46:10 11:49:24 22° 69° (ENE) 11:52:40 145.880/145.840
POLYITAN 1 27 Jul 11:48:45 11:52:02 22° 69° (ENE) 11:55:21 437.675
HUMSAT D 27 Jul 11:54:48 11:58:56 57° 100° (E) 12:02:59 437.325/437.525
ANTELSAT 27 Jul 12:00:42 12:05:01 39° 262° (W) 12:09:24 437.575/2403.000
Cosmos 2491 27 Jul 12:07:16 12:12:38 18° 281° (W) 12:18:03 435.465 / 435.565
FUNcube-1 27 Jul 12:17:27 12:20:29 18° 293° (WNW) 12:23:28 145.935
ZACube-1 27 Jul 12:18:38 12:21:29 17° 294° (WNW) 12:24:17 437.345
UWE-3 27 Jul 12:19:35 12:21:08 12° 297° (WNW) 12:22:40 435.000/436.395/437.385
NANOSAT C BR1 27 Jul 12:30:43 12:34:53 63° 75° (ENE) 12:39:06 145.865
ESTCUBE 1 27 Jul 12:34:14 12:37:55 25° 96° (E) 12:41:35 437.505/2401.250
DUCHIFAT 1 27 Jul 12:34:54 12:39:04 66° 75° (ENE) 12:43:17 145.980
M-CUBED/EXP-1 PRIME 27 Jul 12:36:25 12:40:48 40° 293° (WNW) 12:45:09 437.505
TIGRISAT 27 Jul 12:44:23 12:46:58 15° 268° (W) 12:49:35 435.000
BUGSAT 1 27 Jul 12:49:06 12:52:54 39° 72° (ENE) 12:56:45 437.445
VELOX 1 27 Jul 12:50:25 12:53:46 21° 95° (E) 12:57:07 145.980
CUBEBUG 1 27 Jul 12:50:55 12:54:32 25° 96° (E) 12:58:10 437.445
50 SAT 27 Jul 12:52:03 12:54:43 19° 95° (E) 12:57:22 437.505
QB50P1 27 Jul 12:53:14 12:57:25 64° 259° (WSW) 13:01:41 145.935-145.965
POPSAT HIP 1 27 Jul 12:59:46 13:03:54 54° 260° (W) 13:08:07 437.405
AUBIESAT-1 27 Jul 13:02:49 13:06:39 26° 296° (WNW) 13:10:28 437.475
Cosmos 2504 27 Jul 13:09:42 13:18:06 47° 283° (WNW) 13:26:33 435.465 / 435.565
RS-15 27 Jul 13:17:27 13:24:27 16° 6° (N) 13:31:31 29.354- 29.394
QB50P2 27 Jul 13:21:22 13:25:02 28° 264° (W) 13:28:43 145.880/145.840
POLYITAN 1 27 Jul 13:24:01 13:27:40 27° 264° (W) 13:31:21 437.675
JAS-2 27 Jul 13:30:03 13:36:15 82° 75° (ENE) 13:41:48 435.910
HUMSAT D 27 Jul 13:33:00 13:34:00 11° 296° (WNW) 13:35:00 437.325/437.525
DX 1 27 Jul 13:33:32 13:37:44 46° 100° (E) 13:41:57 434.975-435.025
AISAT 27 Jul 13:34:24 13:38:52 72° 103° (ESE) 13:43:19 437.250
YUBILEINY 27 Jul 13:38:51 13:40:37 11° 301° (WNW) 13:42:23 435.215
UKube-1 27 Jul 13:46:46 13:51:00 51° 101° (E) 13:55:12 .
Oscar 19 27 Jul 13:46:48 13:51:14 31° 69° (ENE) 13:55:41 437.125/150
ESTCUBE 1 27 Jul 14:10:54 14:14:38 27° 290° (WNW) 14:18:23 437.505/2401.250
SPROUT 27 Jul 14:19:36 14:23:56 78° 282° (WNW) 14:28:14 437.525
AO-85 27 Jul 14:20:03 14:25:07 43° 115° (ESE) 14:30:04 145.980
50 SAT 27 Jul 14:25:31 14:28:15 21° 290° (WNW) 14:30:58 437.505
BUGSAT 1 27 Jul 14:26:17 14:28:26 14° 267° (W) 14:30:35 437.445
VELOX 1 27 Jul 14:26:19 14:30:15 31° 289° (WNW) 14:34:09 145.980
CUBEBUG 1 27 Jul 14:27:05 14:30:44 26° 290° (WNW) 14:34:23 437.445
AIST 1 27 Jul 14:50:09 14:54:20 60° 278° (W) 14:58:34
AO-7 27 Jul 14:56:34 15:02:10 20° 54° (NE) 15:07:46 29.400- 29.500
Gurwin Techsat 1B 27 Jul 15:08:09 15:13:28 84° 75° (ENE) 15:18:49 435.225
DX 1 27 Jul 15:11:06 15:13:31 15° 295° (WNW) 15:15:57 434.975-435.025
TISAT 1 27 Jul 15:14:01 15:18:19 83° 281° (W) 15:22:33 437.305
AISAT 27 Jul 15:14:26 15:14:42 10° 297° (WNW) 15:15:00 437.250
JAS-2 27 Jul 15:20:05 15:21:43 11° 268° (W) 15:23:18 435.910
ITAMSAT 1 27 Jul 15:21:23 15:26:07 36° 70° (ENE) 15:30:52 435.822/435.867
SWISSCUBE 27 Jul 15:22:55 15:26:38 22° 95° (E) 15:30:19 437.505
UKube-1 27 Jul 15:24:33 15:26:34 13° 295° (WNW) 15:28:36 .
Oscar 19 27 Jul 15:26:09 15:30:29 28° 264° (W) 15:34:51 437.125/150
RS-15 27 Jul 15:31:36 15:42:32 35° 40° (NE) 15:53:20 29.354- 29.394
GONETS M04 27 Jul 15:42:23 15:49:58 35° 86° (E) 15:57:34
BEESAT 27 Jul 15:43:47 15:48:07 33° 98° (E) 15:52:23 436.000
CUSAT 1 27 Jul 15:50:51 15:53:56 62° 81° (E) 15:57:50 437.405
AO-85 27 Jul 16:01:16 16:05:44 26° 309° (NW) 16:10:05 145.980
ITUPSAT 1 27 Jul 16:06:51 16:11:33 59° 101° (E) 16:16:14 437.325
Cosmos 2499 27 Jul 16:08:17 16:16:17 39° 87° (E) 16:24:08 435.465 / 435.565
DANDE 27 Jul 16:17:31 16:19:52 27° 80° (E) 16:22:28 436.750
AO-7 27 Jul 16:45:29 16:53:52 87° 252° (WSW) 17:02:19 29.400- 29.500
SWISSCUBE 27 Jul 17:00:12 17:04:27 33° 290° (WNW) 17:08:40 437.505
ITAMSAT 1 27 Jul 17:01:25 17:05:37 24° 265° (W) 17:09:51 435.822/435.867
SO-50 27 Jul 17:19:58 17:23:36 22° 49° (NE) 17:27:09 436.795
KKS-1 27 Jul 17:21:06 17:25:20 41° 99° (E) 17:29:34 437.445
BEESAT 27 Jul 17:22:00 17:25:40 23° 293° (WNW) 17:29:20 436.000
PHONESAT 2.4 27 Jul 17:29:53 17:32:42 34° 152° (SSE) 17:35:33 2401.200-2431.200
GONETS M04 27 Jul 17:38:18 17:46:29 45° 284° (WNW) 17:54:46
HORYU 2 27 Jul 17:40:41 17:44:59 47° 73° (ENE) 17:49:18 437.375
RS-15 27 Jul 17:43:58 17:56:20 79° 244° (WSW) 18:08:26 29.354- 29.394
NOAA 18 27 Jul 17:46:29 17:47:28 10° 58° (ENE) 17:48:27 137.9125
ITUPSAT 1 27 Jul 17:46:30 17:48:51 14° 296° (WNW) 17:51:12 437.325
MOZHAYETS 4 27 Jul 17:58:19 18:02:52 68° 284° (WNW) 18:07:22
STARS 27 Jul 17:58:34 18:02:56 52° 101° (E) 18:07:15 437.465
Cosmos 2499 27 Jul 18:00:54 18:09:13 44° 284° (WNW) 18:17:26 435.465 / 435.565
Cubesat XI-IV 27 Jul 18:19:50 18:23:47 21° 65° (ENE) 18:27:45 437.490
BRITE-PL 27 Jul 18:21:09 18:24:37 26° 71° (ENE) 18:28:07 437.365/2234.400
CUTE-I 27 Jul 18:42:19 18:47:08 34° 69° (ENE) 18:51:57 437.470
AO-7 27 Jul 18:43:10 18:47:35 15° 269° (W) 18:52:03 29.400- 29.500
KKS-1 27 Jul 18:58:39 19:01:33 17° 294° (WNW) 19:04:27 437.445
SO-50 27 Jul 18:59:57 19:04:12 38° 246° (WSW) 19:08:19 436.795
NOAA 15 27 Jul 19:00:29 19:05:41 69° 75° (ENE) 19:10:55 137.62
LilacSat-2 27 Jul 19:05:03 19:08:46 47° 75° (ENE) 19:12:31 437.200
PHONESAT 2.4 27 Jul 19:06:06 19:09:08 56° 347° (NNW) 19:12:11 2401.200-2431.200
DOVE 4 27 Jul 19:11:53 19:14:53 19° 67° (ENE) 19:18:00 437.250
CUBESAT XI-V 27 Jul 19:18:48 19:23:26 80° 282° (WNW) 19:28:03 437.345
HORYU 2 27 Jul 19:19:23 19:21:45 14° 267° (W) 19:24:08 437.375
GOMX 1 27 Jul 19:20:11 19:24:13 53° 74° (ENE) 19:28:25 467.674
NOAA 18 27 Jul 19:21:41 19:27:13 83° 73° (ENE) 19:32:47 137.9125
BEESAT 3 27 Jul 19:26:18 19:30:12 79° 117° (ESE) 19:34:08 437.485
BEESAT 2 27 Jul 19:33:34 19:37:20 46° 116° (ESE) 19:41:09 435.950
STARS 27 Jul 19:36:38 19:38:48 13° 295° (WNW) 19:40:57 437.465
HO-68 27 Jul 19:44:21 19:49:48 24° 61° (ENE) 19:55:16 435.675
PCSat 27 Jul 19:50:53 19:55:58 44° 111° (ESE) 20:01:06 145.827
Cubesat XI-IV 27 Jul 19:58:21 20:03:29 46° 260° (W) 20:08:40 437.490
RS-15 27 Jul 20:00:00 20:06:44 17° 263° (W) 20:13:26 29.354- 29.394
BRITE-PL 27 Jul 20:00:04 20:03:08 20° 265° (W) 20:06:12 437.365/2234.400
CUTE-I 27 Jul 20:22:39 20:27:09 27° 264° (W) 20:31:40 437.470
CUBEBUG 2 27 Jul 20:26:13 20:26:44 10° 62° (ENE) 20:27:15 437.445
CANX-2 27 Jul 20:27:44 20:31:33 32° 72° (ENE) 20:35:21 2200.000
CUTE 1.7 + AOD 2 27 Jul 20:40:51 20:44:50 39° 73° (ENE) 20:48:48 437.475
PHONESAT 2.4 27 Jul 20:42:58 20:45:55 40° 4° (N) 20:48:51 2401.200-2431.200
LilacSat-2 27 Jul 20:43:03 20:43:18 10° 269° (W) 20:43:34 437.200
NOAA 15 27 Jul 20:43:50 20:45:54 12° 269° (W) 20:47:59 137.62
DOVE 4 27 Jul 20:48:29 20:52:19 33° 264° (W) 20:56:21 437.250
CINEMA 3 27 Jul 20:55:03 20:59:30 75° 76° (ENE) 21:04:12 145.822/145.860
STRAND 1 27 Jul 21:00:47 21:05:52 64° 101° (ESE) 21:10:54 437.568
NOAA 18 27 Jul 21:07:07 21:08:26 11° 270° (W) 21:09:47 137.9125
BEESAT 3 27 Jul 21:08:02 21:08:23 10° 316° (NW) 21:08:44 437.485
O/OREOS (USA 219) 27 Jul 21:09:02 21:13:08 37° 105° (ESE) 21:17:16 437.305
ISS 27 Jul 21:09:15 21:11:46 21° 130° (SE) 21:14:17 145.825
BEESAT 2 27 Jul 21:13:02 21:15:25 15° 312° (NW) 21:17:48 435.950
Cosmos 2491 27 Jul 21:13:49 21:19:03 18° 79° (E) 21:24:15 435.465 / 435.565
SEEDS 27 Jul 21:18:40 21:22:54 79° 77° (ENE) 21:27:08 437.485
COMPASS 1 27 Jul 21:29:24 21:33:34 72° 77° (ENE) 21:37:44 437.405
HO-68 27 Jul 21:29:50 21:36:56 63° 258° (WSW) 21:44:04 435.675
FUNcube-1 27 Jul 21:33:46 21:37:20 23° 69° (ENE) 21:40:55 145.935
ZACube-1 27 Jul 21:34:52 21:38:34 25° 69° (ENE) 21:42:20 437.345
UWE-3 27 Jul 21:35:02 21:39:16 39° 72° (ENE) 21:43:36 435.000/436.395/437.385
PCSat 27 Jul 21:35:07 21:39:31 25° 308° (NW) 21:43:58 145.827
AIST 2 27 Jul 21:38:54 21:42:50 47° 116° (ESE) 21:46:48 435.215
YUBILEINY 27 Jul 21:46:18 21:55:00 58° 79° (E) 22:03:35 435.215
M-CUBED/EXP-1 PRIME 27 Jul 21:48:09 21:50:17 14° 60° (ENE) 21:52:30 437.505
AAUSAT CUBESAT 2 27 Jul 21:57:10 22:01:18 66° 259° (W) 22:05:26 437.432
CUBEBUG 2 27 Jul 21:58:03 22:02:37 77° 259° (W) 22:07:20 437.445
PRISM 27 Jul 21:58:23 22:02:01 30° 98° (E) 22:05:37 437.425
CANX-2 27 Jul 22:04:25 22:07:25 19° 266° (W) 22:10:26 2200.000
AUBIESAT-1 27 Jul 22:12:39 22:15:41 22° 63° (ENE) 22:18:53 437.475
Oscar 11 27 Jul 22:14:35 22:18:55 73° 77° (ENE) 22:23:16 145.826/435.025
DELFI C3 27 Jul 22:15:18 22:18:43 28° 71° (ENE) 22:22:07 145.870
CUTE 1.7 + AOD 2 27 Jul 22:18:19 22:20:48 15° 267° (W) 22:23:17 437.475
PHONESAT 2.4 27 Jul 22:19:29 22:22:34 83° 204° (SSW) 22:25:39 2401.200-2431.200
STRAND 1 27 Jul 22:41:48 22:44:28 14° 297° (WNW) 22:47:07 437.568
HUMSAT D 27 Jul 22:43:43 22:47:28 30° 71° (ENE) 22:51:14 437.325/437.525
ISS 27 Jul 22:45:03 22:48:02 33° 326° (NW) 22:51:03 145.825
O/OREOS (USA 219) 27 Jul 22:49:32 22:52:40 18° 301° (WNW) 22:55:48 437.305
AO-85 27 Jul 22:55:19 22:58:21 18° 46° (NE) 23:01:13 145.980
TIGRISAT 27 Jul 23:01:44 23:03:29 12° 91° (E) 23:05:14 435.000
Cosmos 2504 27 Jul 23:05:37 23:13:37 61° 79° (E) 23:21:01 435.465 / 435.565
Cosmos 2491 27 Jul 23:05:59 23:14:42 82° 277° (W) 23:23:28 435.465 / 435.565
FUNcube-1 27 Jul 23:09:24 23:13:22 30° 264° (W) 23:17:24 145.935
ZACube-1 27 Jul 23:10:52 23:14:43 27° 264° (W) 23:18:38 437.345
UWE-3 27 Jul 23:12:46 23:15:50 18° 267° (W) 23:18:59 435.000/436.395/437.385
UNISAT 6 27 Jul 23:16:57 23:20:19 20° 94° (E) 23:23:36 437.425
AIST 2 27 Jul 23:18:59 23:21:33 16° 312° (NW) 23:24:09 435.215
M-CUBED/EXP-1 PRIME 27 Jul 23:20:55 23:24:23 39° 258° (WSW) 23:28:10 437.505
ESTCUBE 1 27 Jul 23:32:11 23:35:15 18° 67° (ENE) 23:38:18 437.505/2401.250
PRISM 27 Jul 23:34:12 23:37:05 19° 292° (WNW) 23:39:59 437.425
YUBILEINY 27 Jul 23:44:06 23:51:09 28° 277° (W) 23:58:11 435.215
CUBEBUG 1 27 Jul 23:45:38 23:48:16 16° 67° (ENE) 23:50:54 437.445
VELOX 1 27 Jul 23:46:34 23:48:58 15° 65° (ENE) 23:51:23 145.980
AUBIESAT-1 27 Jul 23:46:58 23:50:01 24° 261° (W) 23:53:19 437.475
DELFI C3 27 Jul 23:50:46 23:53:33 18° 266° (W) 23:56:21 145.870
ANTELSAT 27 Jul 23:54:30 23:59:01 52° 100° (E) 00:03:24 437.575/2403.000
PHONESAT 2.4 27 Jul 23:56:51 23:58:45 15° 214° (SW) 00:00:38 2401.200-2431.200
NANOSAT C BR1 28 Jul 00:19:25 00:21:08 12° 92° (E) 00:22:50 145.865
HUMSAT D 28 Jul 00:19:51 00:23:05 20° 265° (W) 00:26:19 437.325/437.525
DUCHIFAT 1 28 Jul 00:23:13 00:25:03 13° 92° (E) 00:26:54 145.980
DX 1 28 Jul 00:27:00 00:30:45 29° 70° (ENE) 00:34:31 434.975-435.025
AISAT 28 Jul 00:29:25 00:33:35 46° 73° (ENE) 00:37:48 437.250
AO-85 28 Jul 00:35:00 00:39:01 41° 246° (WSW) 00:42:46 145.980
TIGRISAT 28 Jul 00:35:59 00:40:32 56° 286° (WNW) 00:44:56 435.000
UKube-1 28 Jul 00:39:10 00:42:58 32° 71° (ENE) 00:46:48 .
QB50P1 28 Jul 00:40:46 00:44:14 24° 96° (E) 00:47:40 145.935-145.965
POPSAT HIP 1 28 Jul 00:47:07 00:50:48 27° 96° (E) 00:54:27 437.405
UNISAT 6 28 Jul 00:52:54 00:57:05 34° 289° (WNW) 01:01:10 437.425
50 SAT 28 Jul 00:59:40 01:03:19 70° 259° (WSW) 01:06:59 437.505
AIST 1 28 Jul 00:59:46 01:03:22 25° 76° (ENE) 01:06:58
Cosmos 2504 28 Jul 01:00:21 01:06:11 23° 279° (W) 01:11:45 435.465 / 435.565
ESTCUBE 1 28 Jul 01:07:35 01:11:45 37° 262° (W) 01:15:56 437.505/2401.250
QB50P2 28 Jul 01:07:51 01:12:03 53° 100° (E) 01:16:13 145.880/145.840
Cosmos 2491 28 Jul 01:08:31 01:12:55 15° 297° (WNW) 01:17:21 435.465 / 435.565
POLYITAN 1 28 Jul 01:10:29 01:14:42 54° 100° (E) 01:18:52 437.675
SPROUT 28 Jul 01:10:33 01:14:44 57° 74° (ENE) 01:18:57 437.525
CUBEBUG 1 28 Jul 01:20:10 01:24:13 40° 262° (W) 01:28:17 437.445
VELOX 1 28 Jul 01:20:49 01:25:01 46° 260° (W) 01:29:15 145.980
ANTELSAT 28 Jul 01:32:47 01:35:13 14° 295° (WNW) 01:37:38 437.575/2403.000
NANOSAT C BR1 28 Jul 01:52:58 01:57:06 49° 286° (WNW) 02:01:12 145.865
GONETS M04 28 Jul 01:56:41 02:01:13 15° 63° (ENE) 02:05:44
DUCHIFAT 1 28 Jul 01:56:53 02:00:59 47° 286° (WNW) 02:05:03 145.980
Oscar 19 28 Jul 02:02:13 02:04:22 12° 91° (E) 02:06:31 437.125/150
TISAT 1 28 Jul 02:03:08 02:07:12 51° 74° (ENE) 02:11:18 437.305
DX 1 28 Jul 02:03:40 02:06:55 21° 265° (W) 02:10:12 434.975-435.025
BUGSAT 1 28 Jul 02:07:54 02:12:10 84° 283° (WNW) 02:16:25 437.445
AISAT 28 Jul 02:08:07 02:10:17 13° 267° (W) 02:12:29 437.250
UKube-1 28 Jul 02:15:58 02:19:02 19° 265° (W) 02:22:08 .
QB50P1 28 Jul 02:16:22 02:19:55 25° 290° (WNW) 02:23:26 145.935-145.965
POPSAT HIP 1 28 Jul 02:23:05 02:26:24 22° 291° (WNW) 02:29:43 437.405
JAS-2 28 Jul 02:25:30 02:30:53 87° 101° (E) 02:36:47 435.910
SWISSCUBE 28 Jul 02:27:27 02:31:01 21° 67° (ENE) 02:34:35 437.505
AIST 1 28 Jul 02:37:24 02:40:50 23° 271° (W) 02:44:16
QB50P2 28 Jul 02:45:36 02:47:22 12° 295° (WNW) 02:49:06 145.880/145.840
BEESAT 28 Jul 02:48:01 02:52:11 31° 70° (ENE) 02:56:21 436.000
POLYITAN 1 28 Jul 02:48:19 02:50:00 12° 295° (WNW) 02:51:40 437.675
SPROUT 28 Jul 02:50:31 02:51:00 10° 269° (W) 02:51:29 437.525
JUGNU 28 Jul 02:55:28 02:58:03 13° 172° (S) 03:00:38 437.505
ITUPSAT 1 28 Jul 03:11:08 03:15:47 53° 73° (ENE) 03:20:28 437.325
Gurwin Techsat 1B 28 Jul 03:26:56 03:31:55 40° 98° (E) 03:36:52 435.225
ITAMSAT 1 28 Jul 03:37:50 03:40:42 15° 92° (E) 03:43:32 435.822/435.867
ISS 28 Jul 03:38:42 03:40:45 15° 25° (NNE) 03:42:47 145.825
Oscar 19 28 Jul 03:38:58 03:44:06 67° 286° (WNW) 03:49:15 437.125/150
TISAT 1 28 Jul 03:41:54 03:43:08 11° 268° (W) 03:44:22 437.305
BEESAT 3 28 Jul 03:46:05 03:49:15 22° 51° (NE) 03:52:23 437.485
GONETS M04 28 Jul 03:50:34 03:59:25 82° 82° (E) 04:08:17
BEESAT 2 28 Jul 03:54:31 03:56:59 16° 48° (NE) 03:59:26 435.950
Cosmos 2499 28 Jul 03:55:19 04:03:01 62° 80° (E) 04:10:09 435.465 / 435.565
SWISSCUBE 28 Jul 04:04:08 04:08:32 37° 261° (W) 04:12:58 437.505
JAS-2 28 Jul 04:14:11 04:15:21 11° 298° (WNW) 04:16:32 435.910
KKS-1 28 Jul 04:17:06 04:20:53 28° 70° (ENE) 04:24:43 437.445
BEESAT 28 Jul 04:26:03 04:29:55 25° 264° (W) 04:33:50 436.000
PCSat 28 Jul 04:41:20 04:45:39 23° 51° (NE) 04:49:56 145.827
JUGNU 28 Jul 04:43:08 04:46:15 14° 183° (S) 04:49:21 437.505
AO-7 28 Jul 04:50:15 04:57:48 36° 99° (E) 05:05:15 29.400- 29.500
ITUPSAT 1 28 Jul 04:51:21 04:53:53 14° 267° (W) 04:56:27 437.325
CUSAT 1 28 Jul 04:52:05 04:56:26 84° 279° (W) 04:59:47 437.405
STARS 28 Jul 04:52:59 04:56:57 34° 71° (ENE) 05:00:56 437.465
MOZHAYETS 4 28 Jul 04:57:24 05:02:02 86° 78° (ENE) 05:06:41
Gurwin Techsat 1B 28 Jul 05:07:27 05:11:35 24° 294° (WNW) 05:15:43 435.225
SRMSAT 28 Jul 05:14:02 05:16:33 13° 172° (S) 05:19:03 437.500
ISS 28 Jul 05:14:15 05:17:30 74° 223° (SW) 05:20:44 145.825
ITAMSAT 1 28 Jul 05:15:24 05:20:30 58° 287° (WNW) 05:25:33 435.822/435.867
DANDE 28 Jul 05:22:10 05:28:01 73° 98° (E) 05:32:21 436.750
BEESAT 3 28 Jul 05:23:29 05:26:54 28° 247° (WSW) 05:30:16 437.485
BEESAT 2 28 Jul 05:31:12 05:35:02 45° 244° (WSW) 05:38:50 435.950
HORYU 2 28 Jul 05:36:55 05:37:36 10° 91° (E) 05:38:17 437.375
GONETS M04 28 Jul 05:49:40 05:55:06 18° 281° (W) 06:00:32
Cosmos 2499 28 Jul 05:49:59 05:55:16 21° 279° (W) 06:00:20 435.465 / 435.565
KKS-1 28 Jul 05:53:55 05:57:25 23° 264° (W) 06:00:56 437.445
